Charlevoix, MI

12:58 PM EDT on May 21, 2018 (GMT -0400)
Charlevoix Municipal

Weather History for KCVX - January, 2013

Change the Weather History Date:

Tuesday, January 22, 2013

  Actual Average Record
Temperature  
Mean Temperature 6 °F -  
Max Temperature 10 °F 23 °F 48 °F (2002)
Min Temperature 3 °F 12 °F 0 °F (2003)
Degree Days  
Heating Degree Days 59    
Moisture  
Dew Point -3 °F    
Average Humidity 69    
Maximum Humidity 81    
Minimum Humidity 55    
Precipitation  
Precipitation 0.00 in - - ()
Sea Level Pressure  
Sea Level Pressure 30.14 in    
Wind  
Wind Speed 15 mph (WNW)    
Max Wind Speed 20 mph    
Max Gust Speed 28 mph    
Visibility 3 miles    
Events Snow    
Averages and records for this station are not official NWS values.
T = Trace of Precipitation, MM = Missing Value Source: NWS Daily Summary

Daily Weather History Graph

Daily Weather History Graph

Search for Another Location

Airport or City:

Astronomy

Jan. 22, 2013 Rise Set
Actual Time 8:11 AM EST 5:34 PM EST
Civil Twilight 7:39 AM EST 6:06 PM EST
Nautical Twilight 7:03 AM EST 6:42 PM EST
Astronomical Twilight 6:28 AM EST 7:17 PM EST
Moon 1:54 PM EST (1/22) 4:34 AM EST (1/22)
Length of Visible Light 10h 27m
Length of Day
9h 22m
Waxing Gibbous, 82% of the Moon is Illuminated
Jan 22
Waxing Gibbous
Jan 26
Full
Feb 3
Last Quarter
Feb 10
New
Feb 17
First Quarter

Hourly Weather History & Observations

Time (EST) Temp. Windchill Dew Point Humidity Pressure Visibility Wind Dir Wind Speed Gust Speed Precip Events Conditions
12:15 AM 3.0 °F -14.8 °F -5.1 °F 69% 30.05 in 1.8 mi WNW 13.8 mph 20.7 mph N/A Snow Light Snow
12:34 AM 3.0 °F -16.7 °F -4.5 °F 71% 30.05 in 2.0 mi WNW 17.3 mph 20.7 mph N/A Snow Light Snow
12:55 AM 3.2 °F -17.1 °F -2.9 °F 76% 30.04 in 1.2 mi WNW 18.4 mph - N/A Snow Light Snow
1:15 AM 3.2 °F -15.9 °F -3.1 °F 75% 30.04 in 1.2 mi WNW 16.1 mph 23.0 mph N/A Snow Light Snow
1:34 AM 3.0 °F -16.7 °F -3.5 °F 74% 30.04 in 1.0 mi WNW 17.3 mph 24.2 mph N/A Snow Light Snow
1:55 AM 3.2 °F -16.5 °F -2.6 °F 77% 30.04 in 1.0 mi WNW 17.3 mph 24.2 mph N/A Snow Light Snow
2:14 AM 3.7 °F -15.8 °F -2.9 °F 74% 30.04 in 1.2 mi WNW 17.3 mph 24.2 mph N/A Snow Light Snow
2:35 AM 3.7 °F -16.4 °F -4.2 °F 70% 30.05 in 1.2 mi WNW 18.4 mph 23.0 mph N/A Snow Light Snow
2:55 AM 4.1 °F -15.9 °F -2.2 °F 75% 30.05 in 1.2 mi WNW 18.4 mph 25.3 mph N/A Snow Light Snow
3:15 AM 4.1 °F -15.9 °F -2.4 °F 75% 30.06 in 0.8 mi NW 18.4 mph 26.5 mph N/A Snow Light Snow
3:35 AM 4.1 °F -15.3 °F -0.6 °F 81% 30.07 in 0.8 mi WNW 17.3 mph 26.5 mph N/A Snow Snow
3:55 AM 4.1 °F -16.4 °F -1.1 °F 79% 30.07 in 1.0 mi NW 19.6 mph 24.2 mph N/A Snow Snow
4:15 AM 4.1 °F -14.1 °F -2.2 °F 75% 30.08 in 1.0 mi WNW 15.0 mph 23.0 mph N/A Snow Light Snow
4:35 AM 4.3 °F -15.1 °F -2.0 °F 75% 30.08 in 1.0 mi NW 17.3 mph 25.3 mph N/A Snow Light Snow
4:55 AM 3.9 °F -15.0 °F -2.7 °F 74% 30.08 in 1.0 mi WNW 16.1 mph 25.3 mph N/A Snow Light Snow
5:14 AM 4.1 °F -15.3 °F -3.6 °F 70% 30.09 in 2.0 mi WNW 17.3 mph 24.2 mph N/A Snow Light Snow
5:34 AM 3.7 °F -15.8 °F -2.9 °F 74% 30.09 in 0.8 mi WNW 17.3 mph - N/A Snow Light Snow
5:55 AM 3.9 °F -12.2 °F -3.5 °F 71% 30.09 in 1.5 mi WNW 11.5 mph 23.0 mph N/A Snow Light Snow
6:14 AM 3.9 °F -13.7 °F -3.3 °F 72% 30.10 in 1.5 mi WNW 13.8 mph 24.2 mph N/A Snow Light Snow
6:35 AM 3.9 °F -16.1 °F -3.1 °F 73% 30.10 in 1.2 mi WNW 18.4 mph 27.6 mph N/A Snow Light Snow
6:55 AM 3.9 °F -14.3 °F -2.7 °F 74% 30.11 in 1.2 mi WNW 15.0 mph - N/A Snow Light Snow
7:15 AM 3.9 °F -14.3 °F -3.6 °F 71% 30.12 in 1.2 mi WNW 15.0 mph 26.5 mph N/A Snow Light Snow
7:33 AM 3.7 °F -16.9 °F -2.6 °F 75% 30.12 in 1.0 mi WNW 19.6 mph 25.3 mph N/A Snow Light Snow
7:54 AM 3.6 °F -13.4 °F -5.1 °F 67% 30.12 in 1.5 mi WNW 12.7 mph 24.2 mph N/A Snow Light Snow
8:15 AM 3.7 °F -15.8 °F -4.0 °F 70% 30.12 in 0.8 mi WNW 17.3 mph 26.5 mph N/A Snow Light Snow
8:35 AM 4.1 °F -14.7 °F -3.3 °F 71% 30.13 in 0.8 mi WNW 16.1 mph 20.7 mph N/A Snow Light Snow
8:55 AM 4.1 °F -14.7 °F -2.7 °F 73% 30.14 in 0.8 mi WNW 16.1 mph 21.9 mph N/A Snow Light Snow
9:15 AM 4.1 °F -15.3 °F -2.2 °F 75% 30.14 in 0.5 mi NW 17.3 mph 24.2 mph N/A Snow Light Snow
9:34 AM 4.1 °F -14.1 °F -2.6 °F 74% 30.15 in 0.8 mi WNW 15.0 mph 23.0 mph N/A Snow Light Snow
9:55 AM 4.5 °F -13.0 °F -2.2 °F 74% 30.15 in 1.0 mi NW 13.8 mph 23.0 mph N/A Snow Light Snow
10:15 AM 4.8 °F -11.8 °F -3.8 °F 68% 30.16 in 1.0 mi WNW 12.7 mph 20.7 mph N/A Snow Light Snow
10:34 AM 4.5 °F -13.0 °F -3.8 °F 69% 30.17 in 1.0 mi WNW 13.8 mph 20.7 mph N/A Snow Light Snow
10:55 AM 4.8 °F -9.3 °F -4.0 °F 67% 30.17 in 1.5 mi WNW 9.2 mph 17.3 mph N/A Snow Light Snow
11:14 AM 4.6 °F -10.4 °F -4.4 °F 66% 30.17 in 1.8 mi WNW 10.4 mph - N/A Snow Light Snow
11:35 AM 5.0 °F -9.1 °F -2.7 °F 70% 30.17 in 1.5 mi WNW 9.2 mph - N/A Snow Light Snow
11:55 AM 5.4 °F -13.1 °F -4.5 °F 64% 30.17 in 2.5 mi WNW 16.1 mph 19.6 mph N/A Snow Light Snow
12:14 PM 5.4 °F -8.6 °F -2.2 °F 71% 30.17 in 2.0 mi WNW 9.2 mph - N/A Snow Light Snow
12:35 PM 5.4 °F -8.6 °F -3.6 °F 66% 30.17 in 2.5 mi WNW 9.2 mph 17.3 mph N/A Snow Light Snow
12:55 PM 5.7 °F -9.9 °F -3.8 °F 65% 30.18 in 1.5 mi WNW 11.5 mph - N/A Snow Light Snow
1:15 PM 5.7 °F -9.9 °F -3.3 °F 66% 30.17 in 2.5 mi WNW 11.5 mph 19.6 mph N/A Snow Light Snow
1:35 PM 5.9 °F -11.2 °F -3.3 °F 66% 30.17 in 2.0 mi WNW 13.8 mph 20.7 mph N/A Snow Light Snow
1:55 PM 5.7 °F -10.7 °F -2.6 °F 69% 30.17 in 1.2 mi WNW 12.7 mph - N/A Snow Light Snow
2:15 PM 6.3 °F -10.0 °F -4.4 °F 62% 30.17 in 4.0 mi WNW 12.7 mph - N/A   Haze
2:35 PM 6.3 °F -8.4 °F -1.8 °F 69% 30.18 in 2.0 mi WNW 10.4 mph 16.1 mph N/A Snow Light Snow
2:54 PM 6.3 °F -12.5 °F -2.7 °F 67% 30.18 in 4.0 mi West 17.3 mph 21.9 mph N/A   Haze
3:15 PM 6.8 °F -7.8 °F -4.9 °F 59% 30.18 in 10.0 mi WNW 10.4 mph 16.1 mph N/A Snow Light Snow
3:35 PM 6.4 °F -7.3 °F -1.1 °F 71% 30.18 in 1.5 mi West 9.2 mph 17.3 mph N/A Snow Light Snow
3:54 PM 6.8 °F -10.0 °F -1.3 °F 69% 30.18 in 2.0 mi West 13.8 mph - N/A Snow Light Snow
4:15 PM 6.8 °F -12.4 °F -1.5 °F 69% 30.18 in 1.8 mi West 18.4 mph - N/A Snow Light Snow
4:35 PM 6.8 °F -8.6 °F -3.1 °F 64% 30.18 in 7.0 mi WNW 11.5 mph - N/A   Overcast
4:54 PM 7.2 °F -8.1 °F -1.8 °F 67% 30.19 in 2.5 mi WNW 11.5 mph - N/A Snow Light Snow
5:15 PM 6.6 °F -8.0 °F -1.1 °F 71% 30.19 in 2.5 mi West 10.4 mph - N/A Snow Light Snow
5:35 PM 6.8 °F -9.3 °F -1.1 °F 70% 30.19 in 2.0 mi West 12.7 mph 17.3 mph N/A Snow Light Snow
5:54 PM 6.8 °F -8.6 °F -2.2 °F 67% 30.19 in 3.0 mi West 11.5 mph - N/A Snow Light Snow
6:15 PM 7.3 °F -7.9 °F -4.9 °F 57% 30.19 in 7.0 mi West 11.5 mph 19.6 mph N/A   Overcast
6:35 PM 7.3 °F -8.6 °F -1.7 °F 67% 30.20 in 5.0 mi WNW 12.7 mph 20.7 mph N/A Snow Light Snow
6:54 PM 7.7 °F -10.1 °F -5.4 °F 55% 30.20 in 7.0 mi West 16.1 mph 20.7 mph N/A   Overcast
7:15 PM 7.9 °F -9.3 °F -2.9 °F 61% 30.20 in 7.0 mi WNW 15.0 mph 18.4 mph N/A   Overcast
7:34 PM 7.7 °F -9.5 °F -0.6 °F 69% 30.20 in 3.0 mi West 15.0 mph 20.7 mph N/A Snow Light Snow
7:55 PM 8.2 °F -8.2 °F -3.5 °F 59% 30.20 in 7.0 mi WNW 13.8 mph 17.3 mph N/A   Overcast
8:14 PM 8.2 °F -7.5 °F -2.9 °F 60% 30.19 in 7.0 mi WNW 12.7 mph 20.7 mph N/A Snow Light Snow
8:35 PM 8.2 °F -6.8 °F -2.4 °F 62% 30.19 in 5.0 mi WNW 11.5 mph 16.1 mph N/A Snow Light Snow
8:54 PM 8.6 °F -7.0 °F -1.3 °F 64% 30.19 in 7.0 mi WNW 12.7 mph 19.6 mph N/A   Overcast
9:14 PM 8.6 °F -7.0 °F -1.5 °F 64% 30.19 in 10.0 mi NW 12.7 mph - N/A   Overcast
9:34 PM 8.6 °F -7.7 °F -2.2 °F 62% 30.19 in 7.0 mi NW 13.8 mph - N/A   Overcast
9:55 PM 8.8 °F -6.8 °F 0.3 °F 69% 30.19 in 7.0 mi WNW 12.7 mph 20.7 mph N/A Snow Light Snow
10:15 PM 8.8 °F -6.1 °F -0.0 °F 67% 30.19 in 10.0 mi WNW 11.5 mph - N/A   Overcast
10:35 PM 9.3 °F -7.4 °F -0.8 °F 64% 30.19 in 7.0 mi WNW 15.0 mph - N/A   Overcast
10:55 PM 9.3 °F -6.8 °F -0.0 °F 66% 30.19 in 7.0 mi WNW 13.8 mph 17.3 mph N/A   Overcast
11:15 PM 9.5 °F -7.2 °F -0.4 °F 64% 30.19 in 10.0 mi West 15.0 mph 21.9 mph N/A   Overcast
11:34 PM 9.5 °F -7.8 °F -0.0 °F 65% 30.19 in 10.0 mi WNW 16.1 mph - N/A   Overcast
11:55 PM 9.9 °F -6.7 °F -0.4 °F 63% 30.19 in 10.0 mi WNW 15.0 mph 19.6 mph N/A   Overcast